Date String (YYYY-MM-DD hh:mm:ss) UTC,Instrument flags,Ambient pressure (hPa),Sample flow (lpm),Bypass flow (lpm),Sample temperature (°C),Ambient temperature (°C),ASC tube jacket temperature (°C),LED temperature (°C),Box temperature (°C),Sample RH (%),Span deviation,Mass concentration (μg/m³),Mass concentration (μg/m³),Mass concentration (μg/m³)
DateTimeUTC,F1_M11,P_M11,Q1_M11,Q2_M11,T1_M11,T2_M11,T3_M11,T4_M11,T5_M11,U1_M11,ZSPAN_M11,X0_M11,X2_M11,X1_M11
2022-07-25 04:00:00,,0829.5,5.01,0.00,32.4,28.1,00.0,40.3,32.5,34.5,0000.0,0009.74,0005.96,0005.28
2022-07-25 04:01:00,,0829.5,5.00,0.00,32.4,28.2,00.0,40.3,32.4,34.6,0000.0,0009.76,0005.98,0005.29
2022-07-25 04:02:00,,0829.5,4.99,0.00,32.3,28.3,00.0,40.3,32.4,34.7,0000.0,0009.75,0005.98,0005.29
2022-07-25 04:03:00,,0829.5,5.00,0.00,32.3,28.4,00.0,40.3,32.4,34.9,0000.0,0009.77,0005.98,0005.29
2022-07-25 04:04:00,,0829.5,5.01,0.00,32.2,28.5,00.0,40.3,32.4,35.0,0000.0,0009.84,0006.00,0005.29
2022-07-25 04:05:00,,0829.5,5.01,0.00,32.2,28.6,00.0,40.3,32.5,35.0,0000.0,0009.97,0006.06,0005.29
2022-07-25 04:06:00,,0829.5,4.99,0.00,32.4,28.6,00.0,40.3,32.6,34.7,0000.0,0009.91,0006.05,0005.29
2022-07-25 04:07:00,,0829.5,5.00,0.00,32.4,28.7,00.0,40.3,32.6,34.6,0000.0,0009.80,0006.04,0005.28
2022-07-25 04:08:00,,0829.5,5.00,0.00,32.4,28.7,00.0,40.4,32.5,34.7,0000.0,0009.71,0006.03,0005.29
2022-07-25 04:09:00,,0829.5,4.99,0.00,32.4,28.8,00.0,40.4,32.5,34.7,0000.0,0009.73,0006.07,0005.32
2022-07-25 04:10:00,,0829.5,5.00,0.00,32.3,28.8,00.0,40.4,32.5,34.7,0000.0,0009.79,0006.12,0005.36
2022-07-25 04:11:00,,0829.5,5.01,0.00,32.3,28.8,00.0,40.4,32.5,34.8,0000.0,0009.98,0006.17,0005.39
2022-07-25 04:12:00,,0829.5,5.00,0.00,32.2,28.9,00.0,40.4,32.5,34.9,0000.0,0010.14,0006.22,0005.43
2022-07-25 04:13:00,,0829.5,5.00,0.00,32.2,28.9,00.0,40.4,32.5,35.0,0000.0,0010.20,0006.27,0005.48
2022-07-25 04:14:00,,0829.5,5.02,0.00,32.2,28.9,00.0,40.4,32.6,35.0,0000.0,0010.27,0006.32,0005.51
2022-07-25 04:15:00,,0829.5,4.99,0.00,32.3,29.0,00.0,40.4,32.7,34.7,0000.0,0010.37,0006.36,0005.54
2022-07-25 04:16:00,,0829.6,5.00,0.00,32.4,29.0,00.0,40.4,32.7,34.5,0000.0,0010.37,0006.34,0005.55
2022-07-25 04:17:00,,0829.6,4.99,0.00,32.4,29.0,00.0,40.4,32.7,34.3,0000.0,0010.45,0006.38,0005.58
2022-07-25 04:18:00,,0829.7,4.99,0.00,32.4,29.1,00.0,40.4,32.7,34.3,0001.7,0010.55,0006.45,0005.62
2022-07-25 04:19:00,,0829.7,5.00,0.00,32.3,29.1,00.0,40.4,32.7,34.4,0002.0,0010.66,0006.52,0005.66
2022-07-25 04:20:00,,0829.9,5.01,0.00,32.3,29.1,00.0,40.5,32.7,34.5,0001.8,0010.89,0006.58,0005.69
2022-07-25 04:21:00,,0830.0,5.00,0.00,32.3,29.1,00.0,40.5,32.7,34.6,0002.2,0011.03,0006.65,0005.71
2022-07-25 04:22:00,,0829.7,4.99,0.00,32.2,28.4,00.0,40.4,32.6,34.6,0002.4,0010.97,0006.68,0005.75
2022-07-25 04:23:00,,0829.6,5.00,0.00,32.2,27.9,00.0,40.3,32.6,34.8,0002.4,0010.94,0006.71,0005.79
2022-07-25 04:24:00,,0829.6,5.01,0.00,32.0,27.7,00.0,40.3,32.4,35.1,0002.2,0011.23,0006.84,0005.82
2022-07-25 04:25:00,,0829.5,4.99,0.00,32.0,27.7,00.0,40.3,32.4,35.2,0001.7,0012.60,0006.97,0005.85
2022-07-25 04:26:00,,0829.6,5.00,0.00,32.2,27.8,00.0,40.2,32.5,34.8,0001.3,0012.71,0006.99,0005.86
2022-07-25 04:27:00,,0829.6,5.01,0.00,32.3,27.9,00.0,40.2,32.5,34.5,0001.4,0013.17,0007.07,0005.89
2022-07-25 04:28:00,,0829.5,4.99,0.00,32.3,28.0,00.0,40.2,32.5,34.5,0001.6,0013.27,0007.10,0005.90
2022-07-25 04:29:00,,0829.5,5.01,0.00,32.3,28.1,00.0,40.2,32.4,34.6,0000.4,0013.52,0007.16,0005.91
2022-07-25 04:30:00,,0829.5,5.00,0.00,32.2,28.2,00.0,40.2,32.4,34.7,0000.0,0013.64,0007.19,0005.92
2022-07-25 04:31:00,,0829.5,4.99,0.00,32.2,28.3,00.0,40.3,32.3,34.9,0000.0,0014.13,0007.20,0005.95
2022-07-25 04:32:00,,0829.5,5.01,0.00,32.1,28.4,00.0,40.3,32.4,35.1,0000.0,0014.76,0007.19,0005.97
2022-07-25 04:33:00,,0829.6,4.99,0.00,32.2,28.5,00.0,40.3,32.4,34.8,0000.0,0015.46,0007.24,0005.96
2022-07-25 04:34:00,,0829.8,5.01,0.00,32.3,28.5,00.0,40.3,32.5,34.6,0000.0,0016.29,0007.31,0005.97
2022-07-25 04:35:00,,0829.6,4.99,0.00,32.3,28.6,00.0,40.3,32.4,34.6,0000.0,0016.35,0007.33,0005.98
2022-07-25 04:36:00,,0829.7,5.00,0.00,32.3,28.6,00.0,40.3,32.4,34.7,0000.0,0015.14,0007.30,0006.00
2022-07-25 04:37:00,,0829.7,5.00,0.00,32.2,28.6,00.0,40.3,32.4,34.7,0000.0,0015.96,0007.39,0006.05
2022-07-25 04:38:00,,0829.7,5.00,0.00,32.2,28.7,00.0,40.3,32.4,34.8,0000.0,0015.79,0007.48,0006.10
2022-07-25 04:39:00,,0829.7,5.00,0.00,32.1,28.7,00.0,40.3,32.4,34.9,0000.0,0015.96,0007.57,0006.16
2022-07-25 04:40:00,,0829.6,5.01,0.00,32.0,28.7,00.0,40.3,32.4,35.0,0000.0,0015.89,0007.62,0006.22
2022-07-25 04:41:00,,0829.7,5.01,0.00,32.1,28.8,00.0,40.3,32.4,35.1,0000.0,0015.76,0007.65,0006.28
2022-07-25 04:42:00,,0829.7,4.99,0.00,32.2,28.8,00.0,40.3,32.5,34.6,0000.0,0015.68,0007.70,0006.33
2022-07-25 04:43:00,,0829.7,5.00,0.00,32.3,28.8,00.0,40.3,32.5,34.5,0000.0,0015.40,0007.78,0006.37
2022-07-25 04:44:00,,0829.8,5.00,0.00,32.3,28.8,00.0,40.4,32.5,34.5,0000.0,0015.42,0007.87,0006.44
2022-07-25 04:45:00,,0829.7,5.00,0.00,32.2,28.8,00.0,40.4,32.5,34.5,0000.0,0015.16,0007.95,0006.51
2022-07-25 04:46:00,,0829.7,5.00,0.00,32.2,28.8,00.0,40.4,32.5,34.7,0000.0,0015.65,0007.99,0006.56
2022-07-25 04:47:00,,0829.7,5.00,0.00,32.1,28.8,00.0,40.4,32.4,34.7,0000.0,0016.03,0008.07,0006.62
2022-07-25 04:48:00,,0829.7,5.02,0.00,32.1,28.8,00.0,40.4,32.4,34.8,-000.8,0015.68,0008.16,0006.70
2022-07-25 04:49:00,,0829.6,5.01,0.00,32.0,28.8,00.0,40.4,32.4,34.8,-000.9,0015.33,0008.18,0006.76
2022-07-25 04:50:00,,0829.6,5.00,0.00,32.0,28.9,00.0,40.4,32.4,35.0,-000.2,0015.71,0008.23,0006.82
2022-07-25 04:51:00,,0829.6,5.01,0.00,32.0,28.9,00.0,40.4,32.4,35.1,0000.8,0016.00,0008.32,0006.89
2022-07-25 04:52:00,,0829.6,4.98,0.00,32.1,28.9,00.0,40.4,32.6,34.7,0001.4,0016.74,0008.39,0006.93
2022-07-25 04:53:00,,0829.6,5.01,0.00,32.2,28.9,00.0,40.4,32.6,34.6,0001.6,0016.68,0008.43,0006.96
2022-07-25 04:54:00,,0829.7,5.00,0.00,32.2,28.9,00.0,40.4,32.5,34.5,0001.3,0016.37,0008.46,0007.01
2022-07-25 04:55:00,,0829.7,5.00,0.00,32.2,28.9,00.0,40.4,32.5,34.6,0001.3,0016.89,0008.52,0007.05
2022-07-25 04:56:00,,0829.8,4.99,0.00,32.1,28.9,00.0,40.4,32.5,34.7,0000.8,0016.23,0008.56,0007.10
2022-07-25 04:57:00,,0829.8,5.01,0.00,32.1,28.9,00.0,40.4,32.5,34.8,0001.4,0016.42,0008.59,0007.12
2022-07-25 04:58:00,,0829.8,5.01,0.00,32.0,28.9,00.0,40.4,32.4,34.9,0001.0,0016.01,0008.61,0007.17
2022-07-25 04:59:00,,0829.8,5.00,0.00,32.0,28.9,00.0,40.4,32.4,35.0,0000.5,0015.82,0008.59,0007.18
